Owatonna, MN

7:16 PM CST on February 10, 2016 (GMT -0600)
Owatonna Degner Regional

Weather History for KOWA - May, 2013

Change the Weather History Date:

Monday, May 20, 2013

  Actual Average Record
Temperature  
Mean Temperature 66 °F -  
Max Temperature 71 °F 74 °F 93 °F (1975)
Min Temperature 59 °F 46 °F 30 °F (2002)
Growing Degree Days 16 (Base 50)    
Moisture  
Dew Point 60 °F    
Average Humidity 82    
Maximum Humidity 94    
Minimum Humidity 64    
Precipitation  
Precipitation 0.32 in - - ()
Sea Level Pressure  
Sea Level Pressure 29.57 in    
Wind  
Wind Speed 13 mph (SSE)    
Max Wind Speed 28 mph    
Max Gust Speed 32 mph    
Visibility 10 miles    
Events Rain , Thunderstorm    
Averages and records for this station are not official NWS values.
T = Trace of Precipitation, MM = Missing Value Source: NWS Daily Summary

Daily Weather History Graph

Daily Weather History Graph

Search for Another Location

Airport or City:

Trip Planner

Search our weather history database for the weather conditions in past years. The results will help you decide how hot, cold, wet, or windy it might be!

Date:

Astronomy

May. 20, 2013 Rise Set
Actual Time 5:41 AM CDT 8:38 PM CDT
Civil Twilight 5:07 AM CDT 9:12 PM CDT
Nautical Twilight 4:23 AM CDT 9:56 PM CDT
Astronomical Twilight 3:32 AM CDT 10:48 PM CDT
Moon 3:37 PM CDT (5/20) 2:47 AM CDT (5/20)
Length of Visible Light 16h 05m
Length of Day
14h 57m
Waxing Gibbous, 75% of the Moon is Illuminated
May 20
Waxing Gibbous
May 24
Full
May 31
Last Quarter
Jun 8
New
Jun 16
First Quarter

Hourly Weather History & Observations

Time (CDT) Temp. Dew Point Humidity Pressure Visibility Wind Dir Wind Speed Gust Speed Precip Events Conditions
12:14 AM 66.2 °F 60.8 °F 83% 29.57 in 10.0 mi ESE 15.0 mph 25.3 mph N/A   Mostly Cloudy
12:34 AM 64.4 °F 60.8 °F 88% 29.60 in 10.0 mi South 5.8 mph - 0.02 in Rain , Thunderstorm Rain
12:54 AM 64.4 °F 60.8 °F 88% 29.60 in 10.0 mi SE 10.4 mph - 0.05 in Rain , Thunderstorm Thunderstorms and Rain
1:14 AM 64.4 °F 62.6 °F 94% 29.58 in 10.0 mi SE 11.5 mph - 0.05 in Rain , Thunderstorm Rain
1:34 AM 64.4 °F 62.6 °F 94% 29.56 in 10.0 mi SE 12.7 mph 18.4 mph 0.07 in Rain , Thunderstorm Light Thunderstorms and Rain
1:54 AM 64.4 °F 60.8 °F 88% 29.56 in 10.0 mi SE 16.1 mph 20.7 mph 0.08 in Rain Light Rain
2:14 AM 64.4 °F 60.8 °F 88% 29.56 in 10.0 mi SE 13.8 mph 20.7 mph N/A Rain Light Rain
2:34 AM 64.4 °F 60.8 °F 88% 29.56 in 10.0 mi SSE 16.1 mph 23.0 mph N/A   Overcast
3:14 AM 64.4 °F 62.6 °F 94% 29.53 in 10.0 mi SE 13.8 mph 19.6 mph N/A   Overcast
3:34 AM 64.4 °F 60.8 °F 88% 29.52 in 10.0 mi SE 13.8 mph - N/A   Mostly Cloudy
3:54 AM 62.6 °F 60.8 °F 94% 29.53 in 10.0 mi SSE 12.7 mph 19.6 mph N/A   Scattered Clouds
4:14 AM 62.6 °F 60.8 °F 94% 29.52 in 10.0 mi SE 10.4 mph 19.6 mph N/A   Clear
4:34 AM 62.6 °F 60.8 °F 94% 29.51 in 10.0 mi SSE 8.1 mph - N/A   Clear
4:54 AM 62.6 °F 60.8 °F 94% 29.52 in 10.0 mi SSE 11.5 mph 16.1 mph N/A   Scattered Clouds
5:14 AM 62.6 °F 60.8 °F 94% 29.53 in 10.0 mi South 10.4 mph - N/A   Mostly Cloudy
5:34 AM 64.4 °F 60.8 °F 88% 29.55 in 10.0 mi South 15.0 mph 21.9 mph N/A   Overcast
6:14 AM 64.4 °F 60.8 °F 88% 29.56 in 10.0 mi South 13.8 mph 18.4 mph N/A   Overcast
6:34 AM 64.4 °F 60.8 °F 88% 29.57 in 10.0 mi South 15.0 mph 19.6 mph N/A   Overcast
6:54 AM 62.6 °F 59.0 °F 88% 29.57 in 10.0 mi South 19.6 mph 23.0 mph N/A   Overcast
7:14 AM 62.6 °F 59.0 °F 88% 29.58 in 10.0 mi South 15.0 mph 21.9 mph N/A   Mostly Cloudy
7:34 AM 62.6 °F 59.0 °F 88% 29.58 in 10.0 mi South 11.5 mph 18.4 mph N/A   Mostly Cloudy
7:54 AM 62.6 °F 59.0 °F 88% 29.58 in 10.0 mi South 11.5 mph - N/A   Mostly Cloudy
8:14 AM 62.6 °F 59.0 °F 88% 29.57 in 10.0 mi South 8.1 mph - N/A   Scattered Clouds
8:34 AM 64.4 °F 59.0 °F 83% 29.57 in 10.0 mi South 10.4 mph - N/A   Scattered Clouds
9:14 AM 64.4 °F 60.8 °F 88% 29.58 in 10.0 mi South 11.5 mph - N/A   Overcast
9:34 AM 64.4 °F 60.8 °F 88% 29.57 in 10.0 mi South 8.1 mph - N/A   Overcast
9:54 AM 66.2 °F 60.8 °F 83% 29.56 in 10.0 mi South 13.8 mph - N/A   Overcast
10:14 AM 66.2 °F 60.8 °F 83% 29.56 in 10.0 mi South 10.4 mph 17.3 mph N/A   Overcast
10:34 AM 68.0 °F 60.8 °F 78% 29.56 in 10.0 mi South 15.0 mph - N/A   Mostly Cloudy
10:54 AM 66.2 °F 60.8 °F 83% 29.57 in 10.0 mi South 10.4 mph 18.4 mph N/A   Mostly Cloudy
11:14 AM 66.2 °F 60.8 °F 83% 29.57 in 10.0 mi South 8.1 mph - N/A   Mostly Cloudy
11:34 AM 66.2 °F 60.8 °F 83% 29.56 in 10.0 mi South 9.2 mph - N/A   Overcast
11:54 AM 66.2 °F 60.8 °F 83% 29.56 in 5.0 mi SSE 8.1 mph - 0.01 in Rain Rain
12:14 PM 64.4 °F 60.8 °F 88% 29.58 in 4.0 mi SW 17.3 mph 26.5 mph 0.04 in Rain Heavy Rain
12:34 PM 62.6 °F 60.8 °F 94% 29.59 in 3.0 mi SSW 19.6 mph 24.2 mph 0.07 in Rain Heavy Rain
12:54 PM 64.4 °F 60.8 °F 88% 29.58 in 10.0 mi South 15.0 mph - 0.10 in Rain Light Rain
1:14 PM 66.2 °F 62.6 °F 88% 29.58 in 5.0 mi South 16.1 mph 21.9 mph N/A Rain Light Rain
1:34 PM 68.0 °F 60.8 °F 78% 29.59 in 10.0 mi SSW 23.0 mph 27.6 mph N/A   Mostly Cloudy
1:54 PM 69.8 °F 60.8 °F 73% 29.59 in 10.0 mi SSW 20.7 mph 31.1 mph N/A   Scattered Clouds
2:14 PM 69.8 °F 60.8 °F 73% 29.59 in 10.0 mi South 27.6 mph 32.2 mph N/A   Scattered Clouds
2:34 PM 69.8 °F 62.6 °F 78% 29.60 in 10.0 mi SSW 26.5 mph - N/A   Scattered Clouds
2:54 PM 69.8 °F 60.8 °F 73% 29.61 in 10.0 mi SSW 27.6 mph 32.2 mph N/A   Scattered Clouds
3:14 PM 68.0 °F 60.8 °F 78% 29.61 in 10.0 mi SSW 20.7 mph 31.1 mph N/A   Scattered Clouds
3:34 PM 69.8 °F 60.8 °F 73% 29.61 in 10.0 mi South 23.0 mph 26.5 mph N/A   Clear
3:54 PM 69.8 °F 60.8 °F 73% 29.61 in 10.0 mi SSW 21.9 mph - N/A   Scattered Clouds
4:14 PM 69.8 °F 60.8 °F 73% 29.61 in 10.0 mi South 18.4 mph - N/A   Scattered Clouds
4:34 PM 71.6 °F 60.8 °F 69% 29.61 in 10.0 mi South 18.4 mph 27.6 mph N/A   Scattered Clouds
4:54 PM 69.8 °F 57.2 °F 64% 29.61 in 10.0 mi South 18.4 mph 25.3 mph N/A   Mostly Cloudy
5:14 PM 69.8 °F 60.8 °F 73% 29.61 in 10.0 mi South 11.5 mph - N/A   Overcast
5:34 PM 69.8 °F 59.0 °F 68% 29.61 in 10.0 mi South 12.7 mph 17.3 mph N/A   Overcast
5:54 PM 69.8 °F 59.0 °F 68% 29.61 in 10.0 mi South 10.4 mph 16.1 mph N/A   Mostly Cloudy
6:14 PM 69.8 °F 59.0 °F 68% 29.60 in 10.0 mi South 9.2 mph - N/A   Mostly Cloudy
6:34 PM 69.8 °F 59.0 °F 68% 29.60 in 10.0 mi South 10.4 mph - N/A   Overcast
6:54 PM 71.6 °F 59.0 °F 64% 29.59 in 10.0 mi South 8.1 mph - N/A   Overcast
7:14 PM 69.8 °F 59.0 °F 68% 29.59 in 10.0 mi SSE 5.8 mph - N/A   Mostly Cloudy
7:34 PM 69.8 °F 59.0 °F 68% 29.59 in 10.0 mi SSE 6.9 mph - N/A   Mostly Cloudy
7:54 PM 69.8 °F 59.0 °F 68% 29.57 in 10.0 mi SE 6.9 mph - N/A   Overcast
8:14 PM 68.0 °F 59.0 °F 73% 29.57 in 10.0 mi ESE 8.1 mph - N/A   Scattered Clouds
8:34 PM 66.2 °F 59.0 °F 78% 29.56 in 10.0 mi ESE 9.2 mph - N/A   Clear
9:14 PM 66.2 °F 59.0 °F 78% 29.55 in 10.0 mi ESE 9.2 mph - N/A   Scattered Clouds
9:34 PM 66.2 °F 60.8 °F 83% 29.56 in 10.0 mi ESE 9.2 mph - N/A Thunderstorm Clear
9:54 PM 66.2 °F 60.8 °F 83% 29.57 in 10.0 mi SSE 6.9 mph - N/A Thunderstorm Mostly Cloudy
10:14 PM 60.8 °F 55.4 °F 82% 29.61 in 10.0 mi South 11.5 mph 26.5 mph 0.06 in Rain , Thunderstorm Light Thunderstorms and Rain
10:34 PM 60.8 °F 55.4 °F 82% 29.57 in 10.0 mi Calm Calm - 0.08 in Rain , Thunderstorm Light Thunderstorms and Rain
10:54 PM 60.8 °F 55.4 °F 82% 29.56 in 10.0 mi SE 4.6 mph - 0.08 in   Overcast
11:14 PM 60.8 °F 55.4 °F 82% 29.56 in 10.0 mi SE 9.2 mph - N/A Rain Light Rain
11:34 PM 60.8 °F 57.2 °F 88% 29.57 in 10.0 mi SE 9.2 mph - N/A   Mostly Cloudy
11:55 PM 59.0 °F 57.2 °F 94% 29.56 in 10.0 mi SE 9.2 mph - N/A   Mostly Cloudy